Showing default

ICEYE-X46, 63258

Orbit data source: Space-Track

ICEYE-X46, 63258 is a payload satellite owned by ICEYE (FI) in SSO that was launched on Sat, 15 Mar 2025 UTC via an FALCON 9 launch vehicle from the Air Force Western Test Range (AFWTR). Payload-class satellites include a variety of spacecraft equipped with specific instruments for various scientific and technological missions. These include communications satellites like Starlink; space stations such as the ISS; scientific satellites like the Hubble; Earth observation satellites from companies like Planet Labs, Umbra, and HawkEye 360; GPS; miniature CubeSats for education and research; and military/defense satellites.

Loading next visibility...
Identifier
63258, 2025-052BA
Orbit
SSO
Country
Flag of FIFI / FIN
Related business
Manufacturer
ICEYE
Mission
Operational Commercial Radar Imaging
Bus & Motor
ICEYE, Unknown motor
Mass
80 kg wet, 80 kg dry
Launch date (UTC)
2025-03-15 (7 months ago)
Launch vehicle
FALCON 9
Launch site
Air Force Western Test Range (AFWTR)
Object type
Payload
Rocket body
Debris
Shape & HBR
Box + 1 Pan, 0.7 m
Radar Cross Section
0.776 m², Medium (>0.1 m² and < 1m²)

Expand to show TLE details & history
Last TLE update: 20 hours ago

TLE from 20 hours ago
0 ICEYE-X46
1 63258U 25052BA  25287.63560784  .00004478  00000-0  42691-3 0  9999
2 63258  97.7099 178.9725 0001678  86.3832 273.7580 14.93845287 31960
Epoch: 2025-10-14T15:15Z
TLE epoch observation values (Epoch: 2025-10-14T15:15:16.517Z)
Latitude
-0.00001°
Longitude
-73.26752°
Altitude
588.929 km
Speed
7.566 km/s
True Right ascension
11h 55m 53s
True Declination
0° 00' 00"
Sunlit
Object was in daylight at epoch
Visualization orbit readout
Latitude
Unknown
Longitude
Unknown
Altitude
Unknown
Speed
Unknown
Apparent Right ascension
Unknown
Apparent Declination
Unknown
Sunlit
N/A
Visualization observer readout
Local Sidereal Time
05:48:32
Azimuth
Unknown
Elevation
Unknown
Doppler factor
Unknown
Orbital elements
Apogee altitude
584.141 km
Perigee altitude
581.805 km
Semi-major axis
6,961.11 km
Eccentricity
0.00017
Inclination
97.7099°
RAAN
178.9725°
Arg. of periapsis
86.3832°
True anomaly
273.73881°
Mean anomaly
273.758°
Eccentric anomaly
273.74841°
Mean motion
3.73702 °/min
Orbital period
96.33 mins
BSTAR
0.00042691
Loading maneuver chart data...
Computing Atmospheric mass density...
Loading historical data...
Loading historical data...
Loading historical data...
Loading historical data...
Loading historical data...
Loading historical data...
Loading historical data...

Documentation

Showing up to 5 results
|